Skip Page Navigation
NASA JPL Caltech
NASA Logo - Jet Propulsion Laboratory + View the NASA Portal
+ Near-Earth Object (NEO) Program
Search JPL
JPL Home Earth Solar System Stars & Galaxies Technology
JPL Solar System Dynamics
BODIES ORBITS EPHEMERIDES TOOLS PHYSICAL DATA DISCOVERY FAQ SITE MAP
JPL Small-Body Database Browser
Search: [ help ]  
7444 (1996 TM10)
Classification: Main-belt Asteroid          SPK-ID: 2007444
Ephemeris | Orbit Diagram | Orbital Elements | Physical Parameters | Discovery Circumstances ]

[ show orbit diagram ]
Orbital Elements at Epoch 2457400.5 (2016-Jan-13.0) TDB
Reference: JPL 12 (heliocentric ecliptic J2000)
 Element Value Uncertainty (1-sigma)   Units 
e .1661600707336214 5.8352e-08  
a 2.784826208766853 2.3119e-08 au
q 2.32209928893731 1.6726e-07 au
i 9.020413497077602 6.5272e-06 deg
node 355.6796378090849 3.2588e-05 deg
peri 359.1070170155497 3.623e-05 deg
M 71.36701246621919 1.7391e-05 deg
tp 2457063.995722362276
(2015-Feb-10.49572236)
8.0198e-05 JED
period 1697.444460168788
4.65
2.1138e-05
5.787e-08
d
yr
n .2120835222874996 2.641e-09 deg/d
Q 3.247553128596397 2.6961e-08 au
  Orbit Determination Parameters
   # obs. used (total)      975  
   data-arc span      16288 days (44.59 yr)  
   first obs. used      1971-05-14  
   last obs. used      2015-12-17  
   planetary ephem.      DE431  
   SB-pert. ephem.      SB431-BIG16  
   condition code      0  
   fit RMS      .52224  
   data source      ORB  
   producer      Otto Matic  
   solution date      2016-Jan-04 13:03:47  

Additional Information
 Earth MOID = 1.31548 au 
 Jupiter MOID = 2.18199 au 
 T_jup = 3.293 
[ show covariance matrix ]

Ephemeris | Orbit Diagram | Orbital Elements | Physical Parameters | Discovery Circumstances ]

Physical Parameter Table
Parameter Symbol Value Units Sigma Reference Notes
absolute magnitude H 13.2 mag n/a MPO302110  

7444 (1996 TM10)          Discovered 1996-Oct-09 by Ueda, S., Kaneda, H. at Kushiro
Reference: DISCOVERY.DBLast Updated: 2003-08-29

Alternate Designations
 1996 TM10 = 1980 FP = 1982 SV11 = 1988 AQ4 = 1991 RM37 
Ephemeris | Orbit Diagram | Orbital Elements | Physical Parameters | Discovery Circumstances ]
ABOUT SSD CREDITS/AWARDS PRIVACY/COPYRIGHT GLOSSARY LINKS
FirstGov 2016-Feb-10 00:39 UT
(server date/time)  
NASA Home Page
Site Manager:   Ryan S. Park
Webmaster  Alan B. Chamberlin